UWE-4

Last updated on Wed Sep 17 2025 00:03:09 GMT+0000 (Coordinated Universal Time)

1 43880U 18111E 25259.21468325 .00020431 00000+0 72861-3 0 9995 2 43880 97.5815 173.7262 0009501 211.0714 148.9964 15.28887370368680
UTC large
Height (km)
Speed (km/s)
/
Latitude / Longitude
Inclination (degrees)
Orbital Period (minutes)
Azimuth
Elevation
Range (km)
Doppler Factor

Next 0 passes for location: London (51.5072 / 0.1276)

Sorry there are no passes over London.